Regional Weather Roundup
Issued by NWS

Home | Current Version | Previous Version | Text Only | Print | Product List | Glossary On
Versions: 1 2 3 4 5 6 7 8 9 10 11 12 13 14 15 16 17 18 19 20 21 22 23 24 25 26 27 28 29 30 31 32 33 34 35 36 37 38 39 40 41 42 43 44 45 46 47 48 49 50
059
ASUS43 KMKX 202321
RWRWI

WISCONSIN REGIONAL WEATHER ROUNDUP
NATIONAL WEATHER SERVICE MILWAUKEE/SULLIVAN WI
600 PM CDT FRI OCT 20 2017

NOTE: "FAIR" INDICATES FEW OR NO CLOUDS BELOW 12,000 FEET WITH NO
SIGNIFICANT WEATHER AND/OR OBSTRUCTIONS TO VISIBILITY.

WIZ001-002-006>008-014>016-023>028-210000-
NORTHWEST WISCONSIN

CITY           SKY/WX    TMP DP  RH WIND       PRES   REMARKS
SUPERIOR ARPT  PTCLDY    58  51  78 NE6       29.71S
ASHLAND        CLOUDY    73  43  33 S9        29.76F
HAYWARD        MOCLDY    71  43  36 S10       29.78F
SIREN          PTCLDY    71  42  33 S13G22    29.75S
CUMBERLAND     PTCLDY    68  41  37 S10       29.78F
RICE LAKE      PTCLDY    71  40  32 SE9G16    29.81S
CHETEK         PTCLDY    70  44  40 SE12G17   29.80F
LADYSMITH      CLOUDY    69  42  36 S9        29.85S
EAU CLAIRE     CLOUDY    72  45  37 S16       29.81F
MENOMONIE      PTCLDY    72  38  29 SE13      29.80F
NEW RICHMOND   MOCLDY    70  40  33 S14G21    29.76F
OSCEOLA        MOCLDY    72  44  36 SE12G18   29.77S
$$

WIZ003>005-009-010-017-018-210000-
NORTH CENTRAL WISCONSIN

CITY           SKY/WX    TMP DP  RH WIND       PRES   REMARKS
MANITOWISH WTR CLOUDY    66  42  42 S5        29.86S
ARBOR VITAE    CLOUDY    69  47  44 S7        29.88S
WOODRUFF       CLOUDY    69  47  44 S7        29.88S
RHINELANDER    CLOUDY    69  44  40 S9        29.91F
EAGLE RIVER    CLOUDY    67  40  36 S7        29.89F
LAND O LAKES   PTCLDY    68  38  33 S6        29.90S
PHILLIPS       PTCLDY    70  43  38 S10G18    29.85S
TOMAHAWK       CLOUDY    66  46  49 CALM      29.90S
MEDFORD        CLOUDY    66  43  43 S8        29.89F
MERRILL        CLOUDY    70  44  39 S7        29.91F
$$

WIZ029-030-035-036-043>047-210000-
CENTRAL WISCONSIN

CITY           SKY/WX    TMP DP  RH WIND       PRES   REMARKS
WAUSAU         CLEAR     68  42  38 S8        29.90F
MOSINEE        MOCLDY    64  45  48 S9        29.93S
MARSHFIELD     CLOUDY    67  42  40 S13       29.90F
STEVENS POINT  CLOUDY    68  42  38 S7        29.94S
WAUPACA        PTCLDY    69  44  40 SE3       29.95S
WAUTOMA        CLOUDY    69  47  45 S7        29.95F
WISC RAPIDS    CLOUDY    69  45  41 S5        29.93F
CAMP DOUGLAS   NOT AVBL
$$

WIZ011>013-019>022-031-037>040-048>050-210000-
NORTHEAST WISCONSIN

CITY           SKY/WX    TMP DP  RH WIND       PRES   REMARKS
ANTIGO         CLOUDY    64  47  55 S10       29.94F
SHAWANO        CLOUDY    72  49  44 S3        29.94S
OCONTO         CLOUDY    68  49  50 S3        29.94F
STURGEON BAY   CLOUDY    59  53  80 S12       29.97F
GREEN BAY      PTCLDY    70  50  49 S7        29.96S
MANITOWOC      CLOUDY    60  53  77 S10       29.99F
APPLETON       MOCLDY    66  43  42 S7        29.96S
CLINTONVILLE   PTCLDY    68  45  42 S7        29.94S
OSHKOSH        CLOUDY    64  48  56 S8        29.96S
$$

WIZ032>034-041-042-053>061-210000-
SOUTHWEST WISCONSIN

CITY           SKY/WX    TMP DP  RH WIND       PRES   REMARKS
LA CROSSE      CLOUDY    73  47  39 S10       29.86F
SPARTA         PTCLDY    71  47  43 SE9G17    29.90F
VIROQUA        CLOUDY    69  48  48 S13G20    29.92S
BOSCOBEL       CLOUDY    72  47  40 VRB3      29.92F
PRAIRIE DU CHI CLOUDY    73  40  31 SE10G16   29.89F
PLATTEVILLE    CLEAR     68  51  53 S9        29.95F
$$

WIZ056-057-062-063-064-067-068-210000-
SOUTH CENTRAL WISCONSIN

CITY           SKY/WX    TMP DP  RH WIND       PRES   REMARKS
REEDSBURG      PTCLDY    71  45  38 S6        29.94S
BARABOO/DELLS  PTCLDY    66  45  46 S5        29.95S
LONE ROCK      CLOUDY    69  48  47 SE5       29.94F
MINERAL POINT  CLOUDY    70  48  46 S7        29.96S
MADISON        MOCLDY    70  47  43 S10       29.96F
MIDDLETON      MOCLDY    71  46  40 S6        29.97F
WATERTOWN      CLOUDY    70  48  45 S7        29.99S
MONROE         PTCLDY    72  46  40 S15G22    29.98S
JANESVILLE     MOCLDY    73  46  38 S12       29.99F
$$

WIZ051-052-058>065-066-070>072-210000-
SOUTHEAST WISCONSIN

CITY           SKY/WX    TMP DP  RH WIND       PRES   REMARKS
MILWAUKEE      MOCLDY    72  52  49 S8        30.02S
WAUKESHA       CLEAR     70  46  43 S12       30.02S
MILWAUKEE/TIMM CLEAR     72  45  37 S7        30.02S
RACINE         CLOUDY    65  54  67 S6        30.04S
BURLINGTON     CLOUDY    69  51  51 S6        30.02F
KENOSHA        CLOUDY    69  51  52 S7        30.03F
FOND DU LAC    CLOUDY    68  45  43 S7        29.97F
SHEBOYGAN      CLOUDY    64  54  69 S6        29.99F
WEST BEND      CLOUDY    70  45  40 S6        30.00S
JUNEAU         CLOUDY    68  47  46 S9        29.99F
$$

LSZ147-162-210000-
LAKE SUPERIOR

STATION/POSITION TIME  TEMP    WIND        PRES    WAVE
                       AIR SEA DIR/SP/G            HT/PER
                 (UTC) (F)     (DEG/KT/KT) (MB)    (FT/S)
W MID LAKE BUOY  2250   56 53              1007.8F   1
DEVILS ISLAND    2300   72     180/  7/  9 1006.9F
PORT WING        2140          180/ 11/ 19 1007.1S
SAXON HARBOR     2240   76     190/  7/ 12 1007.5S
$$

LMZ867-665-643>646-210000-
LAKE MICHIGAN

STATION/POSITION TIME  TEMP    WIND        PRES    WAVE
                       AIR SEA DIR/SP/G            HT/PER
                 (UTC) (F)     (DEG/KT/KT) (MB)    (FT/S)
S GREEN BAY BUOY 2100   65 58  210/ 10/ 12 1014.5
N MID LAKE BUOY  2250   60 58  190/ 19/ 23 1014.9F   5/ 6
NORTHPORT PIER   2240   59     160/  7/ 14 1014.6R
KEWAUNEE LAKESHO 2300   55     180/ 13/ 15 1014.5
SHEBOYGAN LAKESH 2300   58     180/ 14/ 14 1015.7S
PORT WASHINGTON  2240   58     190/  8/ 12 1016.9S
ATWATER BUOY     2209   59 53  160/ 14/ 17 1016.3F
MILWAUKEE LAKESH 2300   59     150/ 14/ 14   N/A
S MID LAKE BUOY  2250   65 61  150/ 14/ 14 1017.6F   2/ 4
KENOSHA   LAKESH 2300   61     180/ 11/ 13 1016.6
$$

TC  - TEMPERATURE IN CELSIUS
VSB - VISIBILITY IN STATUTE MILES
WCI - WIND CHILL INDEX
HX  - HEAT INDEX





USA.gov is the U.S. government's official web portal to all federal, state and local government web resources and services.